Weather History for Sussex, NJ

Change the Weather History Date:

Sunday, August 18, 2013

  Actual Average Record
Temperature  
Mean Temperature 65 °F -  
Max Temperature 73 °F 81 °F 93 °F (2002)
Min Temperature 57 °F 54 °F 41 °F (1981)
Growing Degree Days 15 (Base 50)    
Moisture  
Dew Point 60 °F    
Average Humidity 92    
Maximum Humidity 100    
Minimum Humidity 71    
Precipitation  
Precipitation 0.01 in - - ()
Sea Level Pressure  
Sea Level Pressure 30.22 in    
Wind  
Wind Speed 0 mph (NNE)    
Max Wind Speed 4 mph    
Max Gust Speed -    
Visibility 6 miles    
Events      
Averages and records for this station are not official NWS values.
T = Trace of Precipitation, MM = Missing Value Source: NWS Daily Summary

Daily Weather History Graph

Daily Weather History Graph

Search for Another Location

Airport:

Trip Planner

Search our weather history database for the weather conditions in past years. The results will help you decide how hot, cold, wet, or windy it might be!

Date:

Astronomy

Aug. 18, 2013 Rise Set
Actual Time 6:11 AM EDT 7:52 PM EDT
Civil Twilight 5:41 AM EDT 8:21 PM EDT
Nautical Twilight 5:06 AM EDT 8:57 PM EDT
Astronomical Twilight 4:28 AM EDT 9:35 PM EDT
Moon 5:57 PM EDT (8/18) 3:16 AM EDT (8/18)
Length of Visible Light 14h 40m
Length of Day
13h 41m
Waxing Gibbous, 92% of the Moon is Illuminated
Aug 18
Waxing Gibbous
Aug 20
Full
Aug 28
Last Quarter
Sep 5
New
Sep 12
First Quarter

Hourly Weather History & Observations

Time (EDT) Temp. Dew Point Humidity Pressure Visibility Wind Dir Wind Speed Gust Speed Precip Events Conditions
12:53 AM 59.0 °F 59.0 °F 100% 30.27 in 7.0 mi Calm Calm - N/A   Clear
1:51 AM 57.2 °F 57.2 °F 100% 30.27 in 5.0 mi Calm Calm - N/A   Scattered Clouds
1:53 AM 57.9 °F 57.9 °F 100% 30.27 in 4.0 mi Calm Calm - N/A   Scattered Clouds
2:01 AM 57.2 °F 57.2 °F 100% 30.27 in 2.0 mi Calm Calm - N/A   Mostly Cloudy
2:03 AM 57.2 °F 57.2 °F 100% 30.26 in 1.2 mi Calm Calm - N/A   Mostly Cloudy
2:16 AM 59.0 °F 57.2 °F 94% 30.27 in 2.5 mi Calm Calm - N/A   Overcast
2:23 AM 57.2 °F 57.2 °F 100% 30.27 in 5.0 mi Calm Calm - N/A   Mostly Cloudy
2:35 AM 57.2 °F 57.2 °F 100% 30.27 in 5.0 mi Calm Calm - N/A   Scattered Clouds
2:53 AM 57.9 °F 57.9 °F 100% 30.27 in 4.0 mi Calm Calm - N/A   Clear
3:12 AM 57.2 °F 57.2 °F 100% 30.27 in 2.5 mi Calm Calm - N/A   Partly Cloudy
3:27 AM 57.2 °F 57.2 °F 100% 30.27 in 4.0 mi Calm Calm - N/A   Clear
3:53 AM 57.9 °F 57.0 °F 97% 30.26 in 5.0 mi Calm Calm - N/A   Clear
4:53 AM 57.9 °F 57.0 °F 97% 30.25 in 6.0 mi Calm Calm - N/A   Clear
5:53 AM 57.9 °F 57.9 °F 100% 30.27 in 7.0 mi Calm Calm - N/A   Clear
6:53 AM 59.0 °F 57.9 °F 96% 30.27 in 5.0 mi Calm Calm - N/A   Clear
7:53 AM 61.0 °F 60.1 °F 97% 30.27 in 7.0 mi Calm Calm - N/A   Clear
8:53 AM 64.0 °F 62.1 °F 93% 30.27 in 9.0 mi Calm Calm - N/A   Clear
9:53 AM 70.0 °F 61.0 °F 73% 30.27 in 10.0 mi NNE 3.5 mph - N/A   Clear
10:53 AM 70.0 °F 62.1 °F 76% 30.26 in 10.0 mi East 3.5 mph - N/A   Clear
11:53 AM 70.0 °F 63.0 °F 78% 30.27 in 10.0 mi Calm Calm - 0.00 in   Overcast
12:53 PM 72.0 °F 64.9 °F 78% 30.25 in 10.0 mi Calm Calm - 0.01 in   Scattered Clouds
1:53 PM 73.0 °F 63.0 °F 71% 30.23 in 10.0 mi Calm Calm - N/A   Scattered Clouds
2:53 PM 73.0 °F 63.0 °F 71% 30.20 in 10.0 mi Calm Calm - N/A   Overcast
3:53 PM 72.0 °F 62.1 °F 71% 30.18 in 10.0 mi Calm Calm - N/A   Mostly Cloudy
4:53 PM 73.0 °F 63.0 °F 71% 30.17 in 10.0 mi NNW 3.5 mph - N/A   Mostly Cloudy
5:53 PM 72.0 °F 62.1 °F 71% 30.17 in 10.0 mi Calm Calm - N/A   Clear
6:53 PM 70.0 °F 66.0 °F 87% 30.15 in 10.0 mi Calm Calm - N/A   Clear
7:53 PM 68.0 °F 64.9 °F 90% 30.16 in 10.0 mi Calm Calm - N/A   Clear
8:53 PM 64.9 °F 64.0 °F 97% 30.15 in 7.0 mi Calm Calm - N/A   Clear
9:53 PM 64.0 °F 63.0 °F 96% 30.16 in 7.0 mi Calm Calm - N/A   Clear
10:53 PM 61.0 °F 61.0 °F 100% 30.15 in 2.0 mi Calm Calm - N/A   Partly Cloudy
10:59 PM 60.8 °F 60.8 °F 100% 30.15 in 1.5 mi Calm Calm - N/A   Mostly Cloudy
11:06 PM 60.8 °F 60.8 °F 100% 30.16 in 3.0 mi Calm Calm - N/A   Mostly Cloudy
11:09 PM 60.8 °F 60.8 °F 100% 30.16 in 1.8 mi Calm Calm - N/A   Mostly Cloudy
11:17 PM 62.6 °F 60.8 °F 94% 30.16 in 1.0 mi Calm Calm - N/A   Overcast
11:43 PM 60.8 °F 60.8 °F 100% 30.16 in 2.0 mi Calm Calm - N/A   Mostly Cloudy
11:50 PM 60.8 °F 60.8 °F 100% 30.16 in 4.0 mi Calm Calm - N/A   Scattered Clouds
11:53 PM 61.0 °F 61.0 °F 100% 30.15 in 2.5 mi Calm Calm - N/A   Partly Cloudy
11:58 PM 60.8 °F 60.8 °F 100% 30.15 in 1.2 mi Calm Calm - N/A   Partly Cloudy